Time,TemperatureF,DewpointF,PressureIn,WindDirection,WindDirectionDegrees,WindSpeedMPH,WindSpeedGustMPH,Humidity,HourlyPrecipIn,Conditions,Clouds,dailyrainin,SoftwareType,DateUTC
2013-02-28 00:00:00,48.5,46.0,30.38,WNW,297,0.0,0.0,91,0.00,CLR,,0.00,WeatherDisplay:10.37,2013-02-28 08:00:00,
2013-02-28 00:05:00,48.4,45.9,30.38,WNW,297,0.0,0.0,91,0.00,CLR,,0.00,WeatherDisplay:10.37,2013-02-28 08:05:00,
2013-02-28 00:10:00,48.4,46.2,30.38,WNW,297,0.0,0.0,92,0.00,CLR,,0.00,WeatherDisplay:10.37,2013-02-28 08:10:00,
2013-02-28 00:15:00,48.3,46.1,30.38,WNW,298,0.0,0.0,92,0.00,CLR,,0.00,WeatherDisplay:10.37,2013-02-28 08:15:00,
2013-02-28 00:20:00,48.3,46.1,30.38,WNW,297,0.0,0.0,92,0.00,CLR,,0.00,WeatherDisplay:10.37,2013-02-28 08:20:00,
2013-02-28 00:25:00,48.2,46.0,30.38,WNW,297,0.0,0.0,92,0.00,CLR,,0.00,WeatherDisplay:10.37,2013-02-28 08:25:00,
2013-02-28 00:30:00,48.1,45.9,30.38,WNW,297,0.0,0.0,92,0.00,CLR,,0.00,WeatherDisplay:10.37,2013-02-28 08:30:00,
2013-02-28 00:35:00,48.1,46.2,30.38,WNW,297,0.0,0.0,93,0.00,CLR,,0.00,WeatherDisplay:10.37,2013-02-28 08:35:00,
2013-02-28 00:40:00,48.0,46.1,30.38,WNW,297,0.0,0.0,93,0.00,CLR,,0.00,WeatherDisplay:10.37,2013-02-28 08:40:00,
2013-02-28 00:45:00,47.9,46.0,30.39,WNW,297,0.0,0.0,93,0.00,CLR,,0.00,WeatherDisplay:10.37,2013-02-28 08:45:00,
2013-02-28 00:50:00,47.9,46.0,30.39,WNW,297,0.0,0.0,93,0.00,CLR,,0.00,WeatherDisplay:10.37,2013-02-28 08:50:00,
2013-02-28 00:55:00,47.8,45.9,30.38,WNW,297,0.0,0.0,93,0.00,CLR,,0.00,WeatherDisplay:10.37,2013-02-28 08:55:00,
2013-02-28 01:00:00,47.7,45.8,30.38,WNW,297,0.0,0.0,93,0.00,CLR,,0.00,WeatherDisplay:10.37,2013-02-28 09:00:00,
2013-02-28 01:05:00,47.6,45.7,30.39,WNW,297,0.0,0.0,93,0.00,CLR,,0.00,WeatherDisplay:10.37,2013-02-28 09:05:00,
2013-02-28 01:10:00,47.6,45.7,30.39,WNW,297,0.0,0.0,93,0.00,CLR,,0.00,WeatherDisplay:10.37,2013-02-28 09:10:00,
2013-02-28 01:15:00,47.6,45.7,30.39,WNW,297,0.0,0.0,93,0.00,CLR,,0.00,WeatherDisplay:10.37,2013-02-28 09:15:00,
2013-02-28 01:20:00,47.5,45.6,30.39,WNW,297,0.0,0.0,93,0.00,CLR,,0.00,WeatherDisplay:10.37,2013-02-28 09:20:00,
2013-02-28 01:25:00,47.6,45.7,30.39,WNW,297,0.0,0.0,93,0.00,CLR,,0.00,WeatherDisplay:10.37,2013-02-28 09:25:00,
2013-02-28 01:30:00,47.6,45.7,30.39,WNW,297,0.0,0.0,93,0.00,CLR,,0.00,WeatherDisplay:10.37,2013-02-28 09:30:00,
2013-02-28 01:35:00,47.6,46.0,30.39,WNW,297,0.0,0.0,94,0.00,CLR,,0.00,WeatherDisplay:10.37,2013-02-28 09:35:00,
2013-02-28 01:40:00,47.7,46.1,30.39,WNW,297,0.0,0.0,94,0.00,CLR,,0.00,WeatherDisplay:10.37,2013-02-28 09:40:00,
2013-02-28 01:45:00,47.7,46.1,30.39,WNW,297,0.0,0.0,94,0.00,CLR,,0.00,WeatherDisplay:10.37,2013-02-28 09:45:00,
2013-02-28 01:50:00,47.7,46.1,30.39,WNW,297,0.0,0.0,94,0.00,CLR,,0.00,WeatherDisplay:10.37,2013-02-28 09:50:00,
2013-02-28 01:55:00,47.8,46.2,30.39,WNW,297,0.0,0.0,94,0.00,CLR,,0.00,WeatherDisplay:10.37,2013-02-28 09:55:00,
2013-02-28 02:00:00,47.9,46.3,30.39,WNW,297,0.0,0.0,94,0.00,CLR,,0.00,WeatherDisplay:10.37,2013-02-28 10:00:00,
2013-02-28 02:05:00,48.0,46.4,30.39,WNW,298,0.0,0.0,94,0.00,CLR,,0.00,WeatherDisplay:10.37,2013-02-28 10:05:00,
2013-02-28 02:10:00,48.1,46.7,30.39,WNW,303,0.0,0.0,95,0.00,CLR,,0.00,WeatherDisplay:10.37,2013-02-28 10:10:00,
2013-02-28 02:15:00,48.3,46.9,30.39,WNW,303,0.0,0.0,95,0.00,CLR,,0.00,WeatherDisplay:10.37,2013-02-28 10:15:00,
2013-02-28 02:20:00,48.5,47.1,30.39,WNW,303,1.2,0.0,95,0.00,CLR,,0.00,WeatherDisplay:10.37,2013-02-28 10:20:00,
2013-02-28 02:25:00,48.6,47.2,30.39,WNW,303,0.0,0.0,95,0.00,CLR,,0.00,WeatherDisplay:10.37,2013-02-28 10:25:00,
2013-02-28 02:30:00,48.7,47.3,30.39,WNW,303,0.0,0.0,95,0.00,CLR,,0.00,WeatherDisplay:10.37,2013-02-28 10:30:00,
2013-02-28 02:35:00,48.7,47.3,30.39,WNW,303,0.0,0.0,95,0.00,CLR,,0.00,WeatherDisplay:10.37,2013-02-28 10:35:00,
2013-02-28 02:40:00,48.7,47.3,30.39,WNW,303,0.0,0.0,95,0.00,CLR,,0.00,WeatherDisplay:10.37,2013-02-28 10:40:00,
2013-02-28 02:45:00,48.7,47.3,30.39,WNW,303,0.0,0.0,95,0.00,CLR,,0.00,WeatherDisplay:10.37,2013-02-28 10:45:00,
2013-02-28 02:50:00,48.6,47.0,30.38,WNW,303,0.0,0.0,94,0.00,CLR,,0.00,WeatherDisplay:10.37,2013-02-28 10:50:00,
2013-02-28 02:55:00,48.5,46.9,30.38,WNW,303,0.0,0.0,94,0.00,CLR,,0.00,WeatherDisplay:10.37,2013-02-28 10:55:00,
2013-02-28 03:00:00,48.4,46.8,30.38,WNW,303,0.0,0.0,94,0.00,CLR,,0.00,WeatherDisplay:10.37,2013-02-28 11:00:00,
2013-02-28 03:05:00,48.3,46.7,30.38,WNW,303,0.0,0.0,94,0.00,CLR,,0.00,WeatherDisplay:10.37,2013-02-28 11:05:00,
2013-02-28 03:10:00,48.2,46.8,30.39,WNW,303,0.0,0.0,95,0.00,CLR,,0.00,WeatherDisplay:10.37,2013-02-28 11:10:00,
2013-02-28 03:15:00,48.1,46.7,30.39,WNW,303,0.0,0.0,95,0.00,CLR,,0.00,WeatherDisplay:10.37,2013-02-28 11:15:00,
2013-02-28 03:20:00,48.0,46.6,30.39,WNW,303,0.0,0.0,95,0.00,CLR,,0.00,WeatherDisplay:10.37,2013-02-28 11:20:00,
2013-02-28 03:25:00,48.0,46.6,30.39,WNW,303,0.0,0.0,95,0.00,CLR,,0.00,WeatherDisplay:10.37,2013-02-28 11:25:00,
2013-02-28 03:30:00,47.9,46.5,30.39,WNW,303,0.0,0.0,95,0.00,CLR,,0.00,WeatherDisplay:10.37,2013-02-28 11:30:00,
2013-02-28 03:35:00,47.8,46.4,30.39,WNW,303,0.0,0.0,95,0.00,CLR,,0.00,WeatherDisplay:10.37,2013-02-28 11:35:00,
2013-02-28 03:40:00,47.6,46.2,30.39,WNW,303,0.0,0.0,95,0.00,CLR,,0.00,WeatherDisplay:10.37,2013-02-28 11:40:00,
2013-02-28 03:45:00,47.6,46.2,30.39,WNW,303,0.0,0.0,95,0.00,CLR,,0.00,WeatherDisplay:10.37,2013-02-28 11:45:00,
2013-02-28 03:50:00,47.4,46.0,30.39,WNW,303,0.0,0.0,95,0.00,CLR,,0.00,WeatherDisplay:10.37,2013-02-28 11:50:00,
2013-02-28 03:55:00,47.4,46.0,30.39,WNW,303,0.0,0.0,95,0.00,CLR,,0.00,WeatherDisplay:10.37,2013-02-28 11:55:00,
2013-02-28 04:00:00,47.3,45.9,30.39,WNW,303,0.0,0.0,95,0.00,CLR,,0.00,WeatherDisplay:10.37,2013-02-28 12:00:00,
2013-02-28 04:05:00,47.2,45.8,30.39,WNW,303,0.0,0.0,95,0.00,CLR,,0.00,WeatherDisplay:10.37,2013-02-28 12:05:00,
2013-02-28 04:10:00,47.0,45.6,30.39,WNW,303,0.0,0.0,95,0.00,CLR,,0.00,WeatherDisplay:10.37,2013-02-28 12:10:00,
2013-02-28 04:15:00,46.9,45.5,30.39,WNW,303,0.0,0.0,95,0.00,CLR,,0.00,WeatherDisplay:10.37,2013-02-28 12:15:00,
2013-02-28 04:20:00,46.7,45.1,30.39,WNW,303,0.0,0.0,94,0.00,CLR,,0.00,WeatherDisplay:10.37,2013-02-28 12:20:00,
2013-02-28 04:25:00,46.5,44.9,30.39,WNW,303,0.0,0.0,94,0.00,CLR,,0.00,WeatherDisplay:10.37,2013-02-28 12:25:00,
2013-02-28 04:30:00,46.3,44.9,30.39,WNW,303,0.0,0.0,95,0.00,CLR,,0.00,WeatherDisplay:10.37,2013-02-28 12:30:00,
2013-02-28 04:35:00,46.5,45.1,30.38,WNW,303,0.0,0.0,95,0.00,CLR,,0.00,WeatherDisplay:10.37,2013-02-28 12:35:00,
2013-02-28 04:40:00,46.5,45.1,30.38,WNW,303,0.0,0.0,95,0.00,CLR,,0.00,WeatherDisplay:10.37,2013-02-28 12:40:00,
2013-02-28 04:45:00,46.4,45.0,30.39,WNW,303,0.0,0.0,95,0.00,CLR,,0.00,WeatherDisplay:10.37,2013-02-28 12:45:00,
2013-02-28 04:50:00,46.5,45.1,30.38,WNW,303,0.0,0.0,95,0.00,CLR,,0.00,WeatherDisplay:10.37,2013-02-28 12:50:00,
2013-02-28 04:55:00,46.6,45.5,30.39,WNW,303,0.0,0.0,96,0.00,CLR,,0.00,WeatherDisplay:10.37,2013-02-28 12:55:00,
2013-02-28 05:00:00,46.8,45.7,30.39,WNW,303,0.0,0.0,96,0.00,CLR,,0.00,WeatherDisplay:10.37,2013-02-28 13:00:00,
2013-02-28 05:05:00,46.9,45.8,30.39,WNW,303,0.0,0.0,96,0.00,CLR,,0.00,WeatherDisplay:10.37,2013-02-28 13:05:00,
2013-02-28 05:10:00,47.1,46.0,30.39,WNW,303,0.0,0.0,96,0.00,CLR,,0.00,WeatherDisplay:10.37,2013-02-28 13:10:00,
2013-02-28 05:15:00,47.1,46.0,30.40,WNW,303,0.0,0.0,96,0.00,CLR,,0.00,WeatherDisplay:10.37,2013-02-28 13:15:00,
2013-02-28 05:20:00,47.0,45.9,30.40,WNW,303,0.0,0.0,96,0.00,CLR,,0.00,WeatherDisplay:10.37,2013-02-28 13:20:00,
2013-02-28 05:25:00,47.0,45.9,30.40,WNW,303,0.0,0.0,96,0.00,CLR,,0.00,WeatherDisplay:10.37,2013-02-28 13:25:00,
2013-02-28 05:30:00,47.0,45.9,30.41,WNW,303,0.0,0.0,96,0.00,CLR,,0.00,WeatherDisplay:10.37,2013-02-28 13:30:00,
2013-02-28 05:35:00,47.0,45.9,30.41,WNW,303,0.0,0.0,96,0.00,CLR,,0.00,WeatherDisplay:10.37,2013-02-28 13:35:00,
2013-02-28 05:40:00,46.9,45.8,30.41,WNW,303,0.0,0.0,96,0.00,CLR,,0.00,WeatherDisplay:10.37,2013-02-28 13:40:00,
2013-02-28 05:45:00,46.7,45.6,30.41,WNW,303,0.0,0.0,96,0.00,CLR,,0.00,WeatherDisplay:10.37,2013-02-28 13:45:00,
2013-02-28 05:50:00,46.4,45.3,30.42,WNW,303,0.0,0.0,96,0.00,CLR,,0.00,WeatherDisplay:10.37,2013-02-28 13:50:00,
2013-02-28 05:55:00,46.2,45.1,30.42,WNW,303,0.0,0.0,96,0.00,CLR,,0.00,WeatherDisplay:10.37,2013-02-28 13:55:00,
2013-02-28 06:00:00,46.1,45.0,30.42,WNW,303,0.0,0.0,96,0.00,CLR,,0.00,WeatherDisplay:10.37,2013-02-28 14:00:00,
2013-02-28 06:05:00,46.0,44.9,30.42,WNW,303,0.0,0.0,96,0.00,CLR,,0.00,WeatherDisplay:10.37,2013-02-28 14:05:00,
2013-02-28 06:10:00,45.9,44.8,30.42,WNW,303,0.0,0.0,96,0.00,CLR,,0.00,WeatherDisplay:10.37,2013-02-28 14:10:00,
2013-02-28 06:15:00,45.9,44.8,30.42,WNW,303,0.0,0.0,96,0.00,CLR,,0.00,WeatherDisplay:10.37,2013-02-28 14:15:00,
2013-02-28 06:20:00,46.0,44.9,30.42,WNW,303,0.0,0.0,96,0.00,CLR,,0.00,WeatherDisplay:10.37,2013-02-28 14:20:00,
2013-02-28 06:25:00,46.3,45.2,30.41,WNW,303,0.0,0.0,96,0.00,CLR,,0.00,WeatherDisplay:10.37,2013-02-28 14:25:00,
2013-02-28 06:30:00,46.5,45.7,30.41,WNW,303,0.0,0.0,97,0.00,CLR,,0.00,WeatherDisplay:10.37,2013-02-28 14:30:00,
2013-02-28 06:35:00,46.7,45.9,30.42,WNW,303,0.0,0.0,97,0.00,CLR,,0.00,WeatherDisplay:10.37,2013-02-28 14:35:00,
2013-02-28 06:40:00,46.9,46.1,30.42,WNW,303,0.0,0.0,97,0.00,CLR,,0.00,WeatherDisplay:10.37,2013-02-28 14:40:00,
2013-02-28 06:45:00,46.9,46.1,30.42,WNW,303,0.0,0.0,97,0.00,CLR,,0.00,WeatherDisplay:10.37,2013-02-28 14:45:00,
2013-02-28 06:50:00,46.9,45.8,30.42,WNW,303,0.0,0.0,96,0.00,CLR,,0.00,WeatherDisplay:10.37,2013-02-28 14:50:00,
2013-02-28 06:55:00,46.9,45.8,30.42,WNW,303,0.0,0.0,96,0.00,CLR,,0.00,WeatherDisplay:10.37,2013-02-28 14:55:00,
2013-02-28 07:00:00,46.9,46.1,30.42,WNW,303,0.0,0.0,97,0.00,CLR,,0.00,WeatherDisplay:10.37,2013-02-28 15:00:00,
2013-02-28 07:05:00,46.9,46.1,30.42,WNW,303,0.0,0.0,97,0.00,CLR,,0.00,WeatherDisplay:10.37,2013-02-28 15:05:00,
2013-02-28 07:10:00,46.9,46.1,30.43,WNW,303,0.0,0.0,97,0.00,CLR,,0.00,WeatherDisplay:10.37,2013-02-28 15:10:00,
2013-02-28 07:15:00,46.9,46.1,30.43,WNW,303,0.0,0.0,97,0.00,CLR,,0.00,WeatherDisplay:10.37,2013-02-28 15:15:00,
2013-02-28 07:20:00,46.9,46.1,30.43,WNW,303,0.0,0.0,97,0.00,CLR,,0.00,WeatherDisplay:10.37,2013-02-28 15:20:00,
2013-02-28 07:25:00,47.0,46.2,30.43,WNW,303,0.0,0.0,97,0.00,CLR,,0.00,WeatherDisplay:10.37,2013-02-28 15:25:00,
2013-02-28 07:30:00,47.0,46.2,30.43,WNW,303,0.0,0.0,97,0.00,CLR,,0.00,WeatherDisplay:10.37,2013-02-28 15:30:00,
2013-02-28 07:35:00,47.0,46.2,30.43,WNW,303,0.0,0.0,97,0.00,CLR,,0.00,WeatherDisplay:10.37,2013-02-28 15:35:00,
2013-02-28 07:40:00,47.1,46.3,30.43,WNW,303,0.0,0.0,97,0.00,CLR,,0.00,WeatherDisplay:10.37,2013-02-28 15:40:00,
2013-02-28 07:45:00,47.2,46.4,30.43,WNW,303,0.0,0.0,97,0.00,CLR,,0.00,WeatherDisplay:10.37,2013-02-28 15:45:00,
2013-02-28 07:50:00,47.4,46.6,30.43,WNW,303,0.0,0.0,97,0.00,CLR,,0.00,WeatherDisplay:10.37,2013-02-28 15:50:00,
2013-02-28 07:55:00,48.0,47.2,30.44,WNW,303,0.0,0.0,97,0.00,CLR,,0.00,WeatherDisplay:10.37,2013-02-28 15:55:00,
2013-02-28 08:00:00,48.6,47.8,30.44,WNW,303,0.0,0.0,97,0.00,CLR,,0.00,WeatherDisplay:10.37,2013-02-28 16:00:00,
2013-02-28 08:05:00,49.3,48.8,30.44,WNW,303,1.2,0.0,98,0.00,CLR,,0.00,WeatherDisplay:10.37,2013-02-28 16:05:00,
2013-02-28 08:10:00,49.8,49.3,30.44,WNW,303,0.0,0.0,98,0.00,CLR,,0.00,WeatherDisplay:10.37,2013-02-28 16:10:00,
2013-02-28 08:15:00,50.3,49.8,30.44,WNW,303,0.0,0.0,98,0.00,CLR,,0.00,WeatherDisplay:10.37,2013-02-28 16:15:00,
2013-02-28 08:20:00,50.7,50.2,30.44,WNW,303,0.0,0.0,98,0.00,CLR,,0.00,WeatherDisplay:10.37,2013-02-28 16:20:00,
2013-02-28 08:25:00,51.1,50.6,30.44,WNW,303,0.0,0.0,98,0.00,CLR,,0.00,WeatherDisplay:10.37,2013-02-28 16:25:00,
2013-02-28 08:30:00,51.5,50.7,30.44,NW,304,0.0,0.0,97,0.00,CLR,,0.00,WeatherDisplay:10.37,2013-02-28 16:30:00,
2013-02-28 08:35:00,51.9,51.1,30.45,NW,304,0.0,0.0,97,0.00,CLR,,0.00,WeatherDisplay:10.37,2013-02-28 16:35:00,
2013-02-28 08:40:00,52.2,51.1,30.45,NW,304,0.0,0.0,96,0.00,CLR,,0.00,WeatherDisplay:10.37,2013-02-28 16:40:00,
2013-02-28 08:45:00,52.3,50.9,30.45,WNW,303,0.0,0.0,95,0.00,CLR,,0.00,WeatherDisplay:10.37,2013-02-28 16:45:00,
2013-02-28 08:50:00,52.5,50.5,30.45,WNW,301,0.0,0.0,93,0.00,CLR,,0.00,WeatherDisplay:10.37,2013-02-28 16:50:00,
2013-02-28 08:55:00,52.7,50.4,30.45,WNW,301,1.2,1.2,92,0.00,CLR,,0.00,WeatherDisplay:10.37,2013-02-28 16:55:00,
2013-02-28 09:00:00,52.9,50.3,30.45,WNW,301,1.2,1.2,91,0.00,CLR,,0.00,WeatherDisplay:10.37,2013-02-28 17:00:00,
2013-02-28 09:05:00,53.2,50.3,30.46,WNW,301,1.2,0.0,90,0.00,CLR,,0.00,WeatherDisplay:10.37,2013-02-28 17:05:00,
2013-02-28 09:10:00,53.5,50.3,30.46,WNW,301,0.0,0.0,89,0.00,CLR,,0.00,WeatherDisplay:10.37,2013-02-28 17:10:00,
2013-02-28 09:15:00,53.7,50.2,30.46,WNW,301,1.2,1.2,88,0.00,CLR,,0.00,WeatherDisplay:10.37,2013-02-28 17:15:00,
2013-02-28 09:20:00,54.0,50.2,30.46,WNW,301,1.2,0.0,87,0.00,CLR,,0.00,WeatherDisplay:10.37,2013-02-28 17:20:00,
2013-02-28 09:25:00,54.3,50.5,30.46,WNW,299,0.0,0.0,87,0.00,CLR,,0.00,WeatherDisplay:10.37,2013-02-28 17:25:00,
2013-02-28 09:30:00,54.6,50.5,30.46,WNW,299,1.0,0.0,86,0.00,CLR,,0.00,WeatherDisplay:10.37,2013-02-28 17:30:00,
2013-02-28 09:35:00,54.9,50.8,30.46,WNW,299,1.2,0.0,86,0.00,CLR,,0.00,WeatherDisplay:10.37,2013-02-28 17:35:00,
2013-02-28 09:40:00,55.1,50.7,30.46,WNW,299,0.0,0.0,85,0.00,CLR,,0.00,WeatherDisplay:10.37,2013-02-28 17:40:00,
2013-02-28 09:45:00,55.7,51.3,30.46,WNW,299,0.0,0.0,85,0.00,CLR,,0.00,WeatherDisplay:10.37,2013-02-28 17:45:00,
2013-02-28 09:50:00,56.2,51.4,30.46,SSW,196,2.0,2.0,84,0.00,CLR,,0.00,WeatherDisplay:10.37,2013-02-28 17:50:00,
2013-02-28 09:55:00,56.6,51.5,30.46,SSE,165,1.0,0.0,83,0.00,CLR,,0.00,WeatherDisplay:10.37,2013-02-28 17:55:00,
2013-02-28 10:00:00,56.9,51.5,30.46,SSE,147,0.0,0.0,82,0.00,CLR,,0.00,WeatherDisplay:10.37,2013-02-28 18:00:00,
2013-02-28 10:05:00,57.3,51.5,30.46,SSE,166,0.0,0.0,81,0.00,CLR,,0.00,WeatherDisplay:10.37,2013-02-28 18:05:00,
2013-02-28 10:10:00,57.8,52.0,30.46,SSE,166,0.0,0.0,81,0.00,CLR,,0.00,WeatherDisplay:10.37,2013-02-28 18:10:00,
2013-02-28 10:15:00,58.4,52.3,30.47,South,171,0.0,0.0,80,0.00,CLR,,0.00,WeatherDisplay:10.37,2013-02-28 18:15:00,
2013-02-28 10:20:00,58.7,51.9,30.46,SE,132,1.2,1.2,78,0.00,CLR,,0.00,WeatherDisplay:10.37,2013-02-28 18:20:00,
2013-02-28 10:25:00,59.2,52.3,30.46,SE,131,2.0,2.0,78,0.00,CLR,,0.00,WeatherDisplay:10.37,2013-02-28 18:25:00,
2013-02-28 10:30:00,59.8,51.9,30.46,SE,131,1.2,0.0,75,0.00,CLR,,0.00,WeatherDisplay:10.37,2013-02-28 18:30:00,
2013-02-28 10:35:00,60.7,52.4,30.46,SE,131,0.0,0.0,74,0.00,CLR,,0.00,WeatherDisplay:10.37,2013-02-28 18:35:00,
2013-02-28 10:40:00,61.0,52.3,30.46,SE,131,0.0,0.0,73,0.00,CLR,,0.00,WeatherDisplay:10.37,2013-02-28 18:40:00,
2013-02-28 10:45:00,61.4,52.3,30.45,SE,132,1.2,1.2,72,0.00,CLR,,0.00,WeatherDisplay:10.37,2013-02-28 18:45:00,
2013-02-28 10:50:00,61.8,52.3,30.45,SE,132,1.2,1.2,71,0.00,CLR,,0.00,WeatherDisplay:10.37,2013-02-28 18:50:00,
2013-02-28 10:55:00,62.2,52.3,30.45,SE,132,2.3,2.3,70,0.00,CLR,,0.00,WeatherDisplay:10.37,2013-02-28 18:55:00,
2013-02-28 11:00:00,62.5,52.6,30.45,SE,138,1.2,1.2,70,0.00,CLR,,0.00,WeatherDisplay:10.37,2013-02-28 19:00:00,
2013-02-28 11:05:00,62.6,52.3,30.45,SE,124,3.5,3.5,69,0.00,CLR,,0.00,WeatherDisplay:10.37,2013-02-28 19:05:00,
2013-02-28 11:10:00,62.6,51.9,30.44,SE,124,2.3,2.3,68,0.00,CLR,,0.00,WeatherDisplay:10.37,2013-02-28 19:10:00,
2013-02-28 11:15:00,62.3,51.6,30.45,NNW,330,2.3,2.3,68,0.00,CLR,,0.00,WeatherDisplay:10.37,2013-02-28 19:15:00,
2013-02-28 11:20:00,62.4,52.1,30.45,SE,134,2.3,2.3,69,0.00,CLR,,0.00,WeatherDisplay:10.37,2013-02-28 19:20:00,
2013-02-28 11:25:00,62.9,51.8,30.45,SE,135,1.2,1.2,67,0.00,CLR,,0.00,WeatherDisplay:10.37,2013-02-28 19:25:00,
2013-02-28 11:30:00,63.3,51.7,30.44,NW,306,2.3,2.3,66,0.00,CLR,,0.00,WeatherDisplay:10.37,2013-02-28 19:30:00,
2013-02-28 11:35:00,63.4,52.2,30.44,WNW,301,1.2,0.0,67,0.00,CLR,,0.00,WeatherDisplay:10.37,2013-02-28 19:35:00,
2013-02-28 11:40:00,63.9,51.5,30.44,WNW,289,2.3,2.3,64,0.00,CLR,,0.00,WeatherDisplay:10.37,2013-02-28 19:40:00,
2013-02-28 11:45:00,64.3,51.4,30.44,South,189,1.2,1.2,63,0.00,CLR,,0.00,WeatherDisplay:10.37,2013-02-28 19:45:00,
2013-02-28 11:50:00,64.8,51.9,30.44,WSW,252,2.3,2.3,63,0.00,CLR,,0.00,WeatherDisplay:10.37,2013-02-28 19:50:00,
2013-02-28 11:55:00,65.1,52.2,30.43,East,83,1.2,1.2,63,0.00,CLR,,0.00,WeatherDisplay:10.37,2013-02-28 19:55:00,
2013-02-28 12:00:00,65.1,51.8,30.44,ESE,116,3.5,3.5,62,0.00,CLR,,0.00,WeatherDisplay:10.37,2013-02-28 20:00:00,
2013-02-28 12:05:00,64.9,51.6,30.43,SE,130,2.3,2.3,62,0.00,CLR,,0.00,WeatherDisplay:10.37,2013-02-28 20:05:00,
2013-02-28 12:10:00,64.7,51.4,30.43,NW,324,3.5,3.5,62,0.00,CLR,,0.00,WeatherDisplay:10.37,2013-02-28 20:10:00,
2013-02-28 12:15:00,64.8,52.3,30.43,SE,141,1.2,1.2,64,0.00,CLR,,0.00,WeatherDisplay:10.37,2013-02-28 20:15:00,
2013-02-28 12:20:00,64.8,51.9,30.43,SE,139,3.5,3.5,63,0.00,CLR,,0.00,WeatherDisplay:10.37,2013-02-28 20:20:00,
2013-02-28 12:25:00,64.3,52.7,30.44,SE,137,3.5,3.5,66,0.00,CLR,,0.00,WeatherDisplay:10.37,2013-02-28 20:25:00,
2013-02-28 12:30:00,63.9,53.5,30.44,SSE,151,2.3,2.3,69,0.00,CLR,,0.00,WeatherDisplay:10.37,2013-02-28 20:30:00,
2013-02-28 12:35:00,63.5,53.1,30.43,NW,320,3.5,3.5,69,0.00,CLR,,0.00,WeatherDisplay:10.37,2013-02-28 20:35:00,
2013-02-28 12:40:00,63.4,53.0,30.44,SE,137,3.5,3.5,69,0.00,CLR,,0.00,WeatherDisplay:10.37,2013-02-28 20:40:00,
2013-02-28 12:45:00,63.7,54.1,30.43,SE,139,1.2,1.2,71,0.00,CLR,,0.00,WeatherDisplay:10.37,2013-02-28 20:45:00,
2013-02-28 12:50:00,64.0,54.0,30.44,ESE,122,2.3,2.3,70,0.00,CLR,,0.00,WeatherDisplay:10.37,2013-02-28 20:50:00,
2013-02-28 12:55:00,63.5,53.5,30.43,WSW,254,1.2,1.2,70,0.00,CLR,,0.00,WeatherDisplay:10.37,2013-02-28 20:55:00,
2013-02-28 13:00:00,63.1,53.5,30.43,NNW,328,3.5,3.5,71,0.00,CLR,,0.00,WeatherDisplay:10.37,2013-02-28 21:00:00,
2013-02-28 13:05:00,62.3,52.8,30.44,WNW,298,3.5,3.5,71,0.00,CLR,,0.00,WeatherDisplay:10.37,2013-02-28 21:05:00,
2013-02-28 13:10:00,61.4,52.7,30.43,WNW,284,3.5,3.5,73,0.00,CLR,,0.00,WeatherDisplay:10.37,2013-02-28 21:10:00,
2013-02-28 13:15:00,61.2,52.5,30.43,NW,312,2.3,2.3,73,0.00,CLR,,0.00,WeatherDisplay:10.37,2013-02-28 21:15:00,
2013-02-28 13:20:00,61.0,52.7,30.43,ESE,120,3.5,3.5,74,0.00,CLR,,0.00,WeatherDisplay:10.37,2013-02-28 21:20:00,
2013-02-28 13:25:00,61.3,52.6,30.42,NNE,33,3.5,3.5,73,0.00,CLR,,0.00,WeatherDisplay:10.37,2013-02-28 21:25:00,
2013-02-28 13:30:00,61.7,53.0,30.42,NNE,26,1.2,1.2,73,0.00,CLR,,0.00,WeatherDisplay:10.37,2013-02-28 21:30:00,
2013-02-28 13:35:00,62.3,52.8,30.42,WNW,297,2.3,2.3,71,0.00,CLR,,0.00,WeatherDisplay:10.37,2013-02-28 21:35:00,
2013-02-28 13:40:00,62.8,53.3,30.41,WNW,297,1.2,1.2,71,0.00,CLR,,0.00,WeatherDisplay:10.37,2013-02-28 21:40:00,
2013-02-28 13:45:00,63.4,53.0,30.41,NW,309,2.0,2.0,69,0.00,CLR,,0.00,WeatherDisplay:10.37,2013-02-28 21:45:00,
2013-02-28 13:50:00,63.6,53.2,30.41,West,275,0.0,0.0,69,0.00,CLR,,0.00,WeatherDisplay:10.37,2013-02-28 21:50:00,
2013-02-28 13:55:00,64.2,53.4,30.40,West,275,1.2,0.0,68,0.00,CLR,,0.00,WeatherDisplay:10.37,2013-02-28 21:55:00,
2013-02-28 14:00:00,64.9,53.7,30.40,SE,138,3.5,3.5,67,0.00,CLR,,0.00,WeatherDisplay:10.37,2013-02-28 22:00:00,
2013-02-28 14:05:00,65.4,53.7,30.41,SSE,147,3.5,3.5,66,0.00,CLR,,0.00,WeatherDisplay:10.37,2013-02-28 22:05:00,
2013-02-28 14:10:00,65.5,53.4,30.41,SSE,147,2.3,2.3,65,0.00,CLR,,0.00,WeatherDisplay:10.37,2013-02-28 22:10:00,
2013-02-28 14:15:00,65.2,54.4,30.41,ESE,122,3.5,3.5,68,0.00,CLR,,0.00,WeatherDisplay:10.37,2013-02-28 22:15:00,
2013-02-28 14:20:00,64.1,53.7,30.41,SE,134,3.5,3.5,69,0.00,CLR,,0.00,WeatherDisplay:10.37,2013-02-28 22:20:00,
2013-02-28 14:25:00,63.6,53.6,30.41,West,260,2.3,2.3,70,0.00,CLR,,0.00,WeatherDisplay:10.37,2013-02-28 22:25:00,
2013-02-28 14:30:00,63.3,53.3,30.41,SSE,147,3.5,3.5,70,0.00,CLR,,0.00,WeatherDisplay:10.37,2013-02-28 22:30:00,
2013-02-28 14:35:00,63.1,53.2,30.41,NW,314,2.3,2.3,70,0.00,CLR,,0.00,WeatherDisplay:10.37,2013-02-28 22:35:00,
2013-02-28 14:40:00,62.9,53.4,30.41,NW,314,1.2,1.2,71,0.00,CLR,,0.00,WeatherDisplay:10.37,2013-02-28 22:40:00,
2013-02-28 14:45:00,63.3,53.3,30.40,East,83,1.2,1.2,70,0.00,CLR,,0.00,WeatherDisplay:10.37,2013-02-28 22:45:00,
2013-02-28 14:50:00,63.5,53.1,30.41,NW,310,1.2,0.0,69,0.00,CLR,,0.00,WeatherDisplay:10.37,2013-02-28 22:50:00,
2013-02-28 14:55:00,63.6,53.2,30.41,NW,324,3.5,3.5,69,0.00,CLR,,0.00,WeatherDisplay:10.37,2013-02-28 22:55:00,
2013-02-28 15:00:00,63.4,53.4,30.41,NW,316,1.2,1.2,70,0.00,CLR,,0.00,WeatherDisplay:10.37,2013-02-28 23:00:00,
2013-02-28 15:05:00,63.2,53.6,30.41,SSE,162,2.3,2.3,71,0.00,CLR,,0.00,WeatherDisplay:10.37,2013-02-28 23:05:00,
2013-02-28 15:10:00,62.9,53.4,30.41,NW,318,2.3,2.3,71,0.00,CLR,,0.00,WeatherDisplay:10.37,2013-02-28 23:10:00,
2013-02-28 15:15:00,62.3,52.8,30.41,ESE,120,3.0,3.0,71,0.00,CLR,,0.00,WeatherDisplay:10.37,2013-02-28 23:15:00,
2013-02-28 15:20:00,62.0,53.2,30.41,ESE,120,0.0,0.0,73,0.00,CLR,,0.00,WeatherDisplay:10.37,2013-02-28 23:20:00,
2013-02-28 15:25:00,62.2,53.1,30.41,NW,325,3.5,3.5,72,0.00,CLR,,0.00,WeatherDisplay:10.37,2013-02-28 23:25:00,
2013-02-28 15:30:00,62.1,53.0,30.41,NW,325,2.3,2.3,72,0.00,CLR,,0.00,WeatherDisplay:10.37,2013-02-28 23:30:00,
2013-02-28 15:35:00,61.8,52.7,30.41,NW,309,2.3,2.3,72,0.00,CLR,,0.00,WeatherDisplay:10.37,2013-02-28 23:35:00,
2013-02-28 15:40:00,61.7,53.0,30.41,WNW,296,2.3,2.3,73,0.00,CLR,,0.00,WeatherDisplay:10.37,2013-02-28 23:40:00,
2013-02-28 15:45:00,61.3,52.6,30.41,NW,313,1.2,1.2,73,0.00,CLR,,0.00,WeatherDisplay:10.37,2013-02-28 23:45:00,
2013-02-28 15:50:00,60.8,52.5,30.41,WNW,301,3.5,3.5,74,0.00,CLR,,0.00,WeatherDisplay:10.37,2013-02-28 23:50:00,
2013-02-28 15:55:00,60.4,52.4,30.41,WNW,290,3.5,3.5,75,0.00,CLR,,0.00,WeatherDisplay:10.37,2013-02-28 23:55:00,
2013-02-28 16:00:00,60.0,52.4,30.41,WNW,289,2.3,2.3,76,0.00,CLR,,0.00,WeatherDisplay:10.37,2013-03-01 00:00:00,
2013-02-28 16:05:00,59.8,52.2,30.40,WNW,289,1.2,1.2,76,0.00,CLR,,0.00,WeatherDisplay:10.37,2013-03-01 00:05:00,
2013-02-28 16:10:00,59.6,52.4,30.40,WNW,289,1.2,1.2,77,0.00,CLR,,0.00,WeatherDisplay:10.37,2013-03-01 00:10:00,
2013-02-28 16:15:00,59.7,52.5,30.40,SE,146,2.3,2.3,77,0.00,CLR,,0.00,WeatherDisplay:10.37,2013-03-01 00:15:00,
2013-02-28 16:20:00,59.8,52.6,30.40,SE,146,1.2,1.2,77,0.00,CLR,,0.00,WeatherDisplay:10.37,2013-03-01 00:20:00,
2013-02-28 16:25:00,59.9,52.7,30.40,WNW,297,1.2,0.0,77,0.00,CLR,,0.00,WeatherDisplay:10.37,2013-03-01 00:25:00,
2013-02-28 16:30:00,60.0,52.8,30.40,WNW,297,0.0,0.0,77,0.00,CLR,,0.00,WeatherDisplay:10.37,2013-03-01 00:30:00,
2013-02-28 16:35:00,60.1,52.5,30.39,WNW,297,0.0,0.0,76,0.00,CLR,,0.00,WeatherDisplay:10.37,2013-03-01 00:35:00,
2013-02-28 16:40:00,60.2,53.0,30.39,WNW,297,0.0,0.0,77,0.00,CLR,,0.00,WeatherDisplay:10.37,2013-03-01 00:40:00,
2013-02-28 16:45:00,60.2,52.6,30.39,WNW,297,0.0,0.0,76,0.00,CLR,,0.00,WeatherDisplay:10.37,2013-03-01 00:45:00,
2013-02-28 16:50:00,60.3,52.7,30.39,WNW,297,0.0,0.0,76,0.00,CLR,,0.00,WeatherDisplay:10.37,2013-03-01 00:50:00,
2013-02-28 16:55:00,60.4,52.8,30.39,SE,137,2.3,2.3,76,0.00,CLR,,0.00,WeatherDisplay:10.37,2013-03-01 00:55:00,
2013-02-28 17:00:00,60.3,52.7,30.39,SE,138,1.2,1.2,76,0.00,CLR,,0.00,WeatherDisplay:10.37,2013-03-01 01:00:00,
2013-02-28 17:05:00,60.2,52.6,30.39,SE,138,1.2,1.2,76,0.00,CLR,,0.00,WeatherDisplay:10.37,2013-03-01 01:05:00,
2013-02-28 17:10:00,60.0,52.8,30.39,SE,138,0.0,0.0,77,0.00,CLR,,0.00,WeatherDisplay:10.37,2013-03-01 01:10:00,
2013-02-28 17:15:00,59.8,52.6,30.40,SE,138,1.2,1.2,77,0.00,CLR,,0.00,WeatherDisplay:10.37,2013-03-01 01:15:00,
2013-02-28 17:20:00,59.5,52.3,30.40,SE,124,3.5,3.5,77,0.00,CLR,,0.00,WeatherDisplay:10.37,2013-03-01 01:20:00,
2013-02-28 17:25:00,59.1,52.2,30.40,SE,124,1.2,0.0,78,0.00,CLR,,0.00,WeatherDisplay:10.37,2013-03-01 01:25:00,
2013-02-28 17:30:00,59.0,52.1,30.40,NNW,333,2.3,2.3,78,0.00,CLR,,0.00,WeatherDisplay:10.37,2013-03-01 01:30:00,
2013-02-28 17:35:00,58.4,51.9,30.40,NNW,333,3.5,3.5,79,0.00,CLR,,0.00,WeatherDisplay:10.37,2013-03-01 01:35:00,
2013-02-28 17:40:00,58.0,51.9,30.40,NNW,333,1.2,1.2,80,0.00,CLR,,0.00,WeatherDisplay:10.37,2013-03-01 01:40:00,
2013-02-28 17:45:00,57.7,51.9,30.40,WNW,290,2.3,2.3,81,0.00,CLR,,0.00,WeatherDisplay:10.37,2013-03-01 01:45:00,
2013-02-28 17:50:00,57.5,51.7,30.40,WNW,290,1.2,1.2,81,0.00,CLR,,0.00,WeatherDisplay:10.37,2013-03-01 01:50:00,
2013-02-28 17:55:00,57.3,51.9,30.40,West,279,1.2,1.2,82,0.00,CLR,,0.00,WeatherDisplay:10.37,2013-03-01 01:55:00,
2013-02-28 18:00:00,57.0,51.6,30.40,West,280,1.2,1.2,82,0.00,CLR,,0.00,WeatherDisplay:10.37,2013-03-01 02:00:00,
2013-02-28 18:05:00,56.8,51.7,30.40,West,279,0.0,0.0,83,0.00,CLR,,0.00,WeatherDisplay:10.37,2013-03-01 02:05:00,
2013-02-28 18:10:00,56.6,51.5,30.40,West,280,2.3,2.3,83,0.00,CLR,,0.00,WeatherDisplay:10.37,2013-03-01 02:10:00,
2013-02-28 18:15:00,56.4,51.6,30.40,WNW,297,3.5,3.5,84,0.00,CLR,,0.00,WeatherDisplay:10.37,2013-03-01 02:15:00,
2013-02-28 18:20:00,56.1,51.7,30.40,WNW,297,2.3,2.3,85,0.00,CLR,,0.00,WeatherDisplay:10.37,2013-03-01 02:20:00,
2013-02-28 18:25:00,55.7,51.3,30.41,WNW,297,1.2,1.2,85,0.00,CLR,,0.00,WeatherDisplay:10.37,2013-03-01 02:25:00,
2013-02-28 18:30:00,55.5,51.4,30.41,WNW,297,0.0,0.0,86,0.00,CLR,,0.00,WeatherDisplay:10.37,2013-03-01 02:30:00,
2013-02-28 18:35:00,55.2,51.1,30.41,WNW,297,0.0,0.0,86,0.00,CLR,,0.00,WeatherDisplay:10.37,2013-03-01 02:35:00,
2013-02-28 18:40:00,55.0,50.9,30.41,WNW,297,0.0,0.0,86,0.00,CLR,,0.00,WeatherDisplay:10.37,2013-03-01 02:40:00,
2013-02-28 18:45:00,54.7,50.9,30.41,WNW,297,0.0,0.0,87,0.00,CLR,,0.00,WeatherDisplay:10.37,2013-03-01 02:45:00,
2013-02-28 18:50:00,54.5,50.7,30.41,WNW,297,1.2,0.0,87,0.00,CLR,,0.00,WeatherDisplay:10.37,2013-03-01 02:50:00,
2013-02-28 18:55:00,54.4,50.9,30.42,WNW,297,1.2,0.0,88,0.00,CLR,,0.00,WeatherDisplay:10.37,2013-03-01 02:55:00,
2013-02-28 19:00:00,54.4,50.9,30.42,WNW,297,1.2,1.2,88,0.00,CLR,,0.00,WeatherDisplay:10.37,2013-03-01 03:00:00,
2013-02-28 19:05:00,54.3,50.8,30.42,WNW,297,1.2,0.0,88,0.00,CLR,,0.00,WeatherDisplay:10.37,2013-03-01 03:05:00,
2013-02-28 19:10:00,54.2,51.0,30.42,WNW,297,1.2,1.2,89,0.00,CLR,,0.00,WeatherDisplay:10.37,2013-03-01 03:10:00,
2013-02-28 19:15:00,54.1,50.9,30.42,WNW,297,0.0,0.0,89,0.00,CLR,,0.00,WeatherDisplay:10.37,2013-03-01 03:15:00,
2013-02-28 19:20:00,54.0,50.8,30.42,WNW,297,0.0,0.0,89,0.00,CLR,,0.00,WeatherDisplay:10.37,2013-03-01 03:20:00,
2013-02-28 19:25:00,53.9,50.7,30.42,WNW,297,0.0,0.0,89,0.00,CLR,,0.00,WeatherDisplay:10.37,2013-03-01 03:25:00,
2013-02-28 19:30:00,53.7,50.5,30.42,WNW,297,0.0,0.0,89,0.00,CLR,,0.00,WeatherDisplay:10.37,2013-03-01 03:30:00,
2013-02-28 19:35:00,53.6,50.4,30.43,WNW,297,0.0,0.0,89,0.00,CLR,,0.00,WeatherDisplay:10.37,2013-03-01 03:35:00,
2013-02-28 19:40:00,53.4,50.2,30.43,WNW,297,0.0,0.0,89,0.00,CLR,,0.00,WeatherDisplay:10.37,2013-03-01 03:40:00,
2013-02-28 19:45:00,53.2,50.3,30.43,WNW,297,0.0,0.0,90,0.00,CLR,,0.00,WeatherDisplay:10.37,2013-03-01 03:45:00,
2013-02-28 19:50:00,53.1,50.2,30.43,WNW,297,0.0,0.0,90,0.00,CLR,,0.00,WeatherDisplay:10.37,2013-03-01 03:50:00,
2013-02-28 19:55:00,53.0,50.1,30.43,WNW,297,0.0,0.0,90,0.00,CLR,,0.00,WeatherDisplay:10.37,2013-03-01 03:55:00,
2013-02-28 20:00:00,52.8,49.9,30.43,WNW,297,0.0,0.0,90,0.00,CLR,,0.00,WeatherDisplay:10.37,2013-03-01 04:00:00,
2013-02-28 20:05:00,52.7,50.1,30.43,WNW,297,0.0,0.0,91,0.00,CLR,,0.00,WeatherDisplay:10.37,2013-03-01 04:05:00,
2013-02-28 20:10:00,52.6,50.0,30.43,WNW,297,0.0,0.0,91,0.00,CLR,,0.00,WeatherDisplay:10.37,2013-03-01 04:10:00,
2013-02-28 20:15:00,52.4,49.8,30.43,WNW,297,0.0,0.0,91,0.00,CLR,,0.00,WeatherDisplay:10.37,2013-03-01 04:15:00,
2013-02-28 20:20:00,52.4,49.8,30.43,WNW,297,0.0,0.0,91,0.00,CLR,,0.00,WeatherDisplay:10.37,2013-03-01 04:20:00,
2013-02-28 20:25:00,52.3,50.0,30.43,WNW,297,0.0,0.0,92,0.00,CLR,,0.00,WeatherDisplay:10.37,2013-03-01 04:25:00,
2013-02-28 20:30:00,52.2,49.9,30.43,WNW,297,0.0,0.0,92,0.00,CLR,,0.00,WeatherDisplay:10.37,2013-03-01 04:30:00,
2013-02-28 20:35:00,52.0,49.7,30.43,WNW,297,0.0,0.0,92,0.00,CLR,,0.00,WeatherDisplay:10.37,2013-03-01 04:35:00,
2013-02-28 20:40:00,51.9,49.6,30.43,WNW,297,0.0,0.0,92,0.00,CLR,,0.00,WeatherDisplay:10.37,2013-03-01 04:40:00,
2013-02-28 20:45:00,51.8,49.5,30.43,WNW,297,0.0,0.0,92,0.00,CLR,,0.00,WeatherDisplay:10.37,2013-03-01 04:45:00,
2013-02-28 20:50:00,51.8,49.5,30.43,WNW,297,0.0,0.0,92,0.00,CLR,,0.00,WeatherDisplay:10.37,2013-03-01 04:50:00,
2013-02-28 20:55:00,51.7,49.7,30.43,WNW,297,0.0,0.0,93,0.00,CLR,,0.00,WeatherDisplay:10.37,2013-03-01 04:55:00,
2013-02-28 21:00:00,51.8,49.8,30.43,WNW,297,0.0,0.0,93,0.00,CLR,,0.00,WeatherDisplay:10.37,2013-03-01 05:00:00,
2013-02-28 21:05:00,51.7,49.5,30.43,WNW,297,0.0,0.0,92,0.00,CLR,,0.00,WeatherDisplay:10.37,2013-03-01 05:05:00,
2013-02-28 21:06:00,51.7,49.5,30.43,WNW,297,0.0,0.0,92,0.00,CLR,,0.00,WeatherDisplay:10.37,2013-03-01 05:06:00,
2013-02-28 21:11:00,51.6,49.6,30.43,WNW,297,0.0,0.0,93,0.00,CLR,,0.00,WeatherDisplay:10.37,2013-03-01 05:11:00,
2013-02-28 21:16:00,51.5,49.5,30.43,WNW,297,0.0,0.0,93,0.00,CLR,,0.00,WeatherDisplay:10.37,2013-03-01 05:16:00,
2013-02-28 21:21:00,51.4,49.4,30.43,WNW,297,0.0,0.0,93,0.00,CLR,,0.00,WeatherDisplay:10.37,2013-03-01 05:21:00,
2013-02-28 21:26:00,51.3,49.3,30.44,WNW,297,0.0,0.0,93,0.00,CLR,,0.00,WeatherDisplay:10.37,2013-03-01 05:26:00,
2013-02-28 21:31:00,51.2,49.2,30.44,WNW,297,0.0,0.0,93,0.00,CLR,,0.00,WeatherDisplay:10.37,2013-03-01 05:31:00,
2013-02-28 21:36:00,51.1,49.1,30.44,WNW,297,0.0,0.0,93,0.00,CLR,,0.00,WeatherDisplay:10.37,2013-03-01 05:36:00,
2013-02-28 21:41:00,51.1,49.1,30.44,WNW,297,0.0,0.0,93,0.00,CLR,,0.00,WeatherDisplay:10.37,2013-03-01 05:41:00,
2013-02-28 21:46:00,51.1,49.1,30.44,WNW,297,0.0,0.0,93,0.00,CLR,,0.00,WeatherDisplay:10.37,2013-03-01 05:46:00,
2013-02-28 21:51:00,51.1,49.4,30.44,WNW,297,0.0,0.0,94,0.00,CLR,,0.00,WeatherDisplay:10.37,2013-03-01 05:51:00,
2013-02-28 21:56:00,51.0,49.3,30.45,WNW,297,0.0,0.0,94,0.00,CLR,,0.00,WeatherDisplay:10.37,2013-03-01 05:56:00,
2013-02-28 22:01:00,51.0,49.3,30.45,WNW,297,0.0,0.0,94,0.00,CLR,,0.00,WeatherDisplay:10.37,2013-03-01 06:01:00,
2013-02-28 22:06:00,50.9,49.2,30.44,WNW,297,0.0,0.0,94,0.00,CLR,,0.00,WeatherDisplay:10.37,2013-03-01 06:06:00,
2013-02-28 22:11:00,50.8,49.1,30.44,WNW,297,0.0,0.0,94,0.00,CLR,,0.00,WeatherDisplay:10.37,2013-03-01 06:11:00,
2013-02-28 22:16:00,50.7,49.0,30.45,WNW,297,0.0,0.0,94,0.00,CLR,,0.00,WeatherDisplay:10.37,2013-03-01 06:16:00,
2013-02-28 22:21:00,50.6,48.9,30.44,WNW,297,0.0,0.0,94,0.00,CLR,,0.00,WeatherDisplay:10.37,2013-03-01 06:21:00,
2013-02-28 22:26:00,50.5,48.8,30.44,WNW,297,0.0,0.0,94,0.00,CLR,,0.00,WeatherDisplay:10.37,2013-03-01 06:26:00,
2013-02-28 22:31:00,50.5,48.8,30.45,WNW,297,0.0,0.0,94,0.00,CLR,,0.00,WeatherDisplay:10.37,2013-03-01 06:31:00,
2013-02-28 22:36:00,50.4,48.7,30.45,WNW,297,0.0,0.0,94,0.00,CLR,,0.00,WeatherDisplay:10.37,2013-03-01 06:36:00,
2013-02-28 22:41:00,50.3,48.6,30.45,WNW,297,0.0,0.0,94,0.00,CLR,,0.00,WeatherDisplay:10.37,2013-03-01 06:41:00,
2013-02-28 22:46:00,50.2,48.8,30.45,WNW,297,0.0,0.0,95,0.00,CLR,,0.00,WeatherDisplay:10.37,2013-03-01 06:46:00,
2013-02-28 22:51:00,50.1,48.7,30.45,WNW,297,0.0,0.0,95,0.00,CLR,,0.00,WeatherDisplay:10.37,2013-03-01 06:51:00,
2013-02-28 22:56:00,50.1,48.7,30.45,WNW,297,0.0,0.0,95,0.00,CLR,,0.00,WeatherDisplay:10.37,2013-03-01 06:56:00,
2013-02-28 23:01:00,50.0,48.6,30.45,WNW,297,0.0,0.0,95,0.00,CLR,,0.00,WeatherDisplay:10.37,2013-03-01 07:01:00,
2013-02-28 23:06:00,49.9,48.5,30.45,WNW,297,0.0,0.0,95,0.00,CLR,,0.00,WeatherDisplay:10.37,2013-03-01 07:06:00,
2013-02-28 23:11:00,49.8,48.4,30.45,WNW,297,0.0,0.0,95,0.00,CLR,,0.00,WeatherDisplay:10.37,2013-03-01 07:11:00,
2013-02-28 23:16:00,49.6,48.2,30.44,WNW,297,0.0,0.0,95,0.00,CLR,,0.00,WeatherDisplay:10.37,2013-03-01 07:16:00,
2013-02-28 23:21:00,49.5,48.1,30.44,WNW,297,0.0,0.0,95,0.00,CLR,,0.00,WeatherDisplay:10.37,2013-03-01 07:21:00,
2013-02-28 23:26:00,49.3,47.9,30.44,WNW,297,0.0,0.0,95,0.00,CLR,,0.00,WeatherDisplay:10.37,2013-03-01 07:26:00,
2013-02-28 23:31:00,49.2,47.8,30.44,WNW,297,0.0,0.0,95,0.00,CLR,,0.00,WeatherDisplay:10.37,2013-03-01 07:31:00,
2013-02-28 23:36:00,49.2,47.8,30.44,WNW,297,0.0,0.0,95,0.00,CLR,,0.00,WeatherDisplay:10.37,2013-03-01 07:36:00,
2013-02-28 23:41:00,49.2,48.1,30.44,WNW,297,0.0,0.0,96,0.00,CLR,,0.00,WeatherDisplay:10.37,2013-03-01 07:41:00,
2013-02-28 23:46:00,49.2,48.1,30.44,WNW,297,0.0,0.0,96,0.00,CLR,,0.00,WeatherDisplay:10.37,2013-03-01 07:46:00,
2013-02-28 23:51:00,49.2,48.1,30.44,WNW,297,0.0,0.0,96,0.00,CLR,,0.00,WeatherDisplay:10.37,2013-03-01 07:51:00,
2013-02-28 23:56:00,49.2,48.1,30.44,WNW,297,0.0,0.0,96,0.00,CLR,,0.00,WeatherDisplay:10.37,2013-03-01 07:56:00,